Powrót do katalogu

SL-16 DEB

AktywnyLEO
NORAD 22610·DEBRIS·🇷🇺 Russia

Wystrzelony Mar 26, 1993 z Baikonur Cosmodrome

Loading…

Następne Przeloty (najbliższe 24 godziny)

TLE

ŚwieżeSource: Space-Track

Epoka: Sep 14, 2026, 12:09 UTC

1 22610U 93016U   26257.50657295 -.00000009  00000-0  33136-4 0  9991
2 22610  70.9993 295.7367 0213547 185.0471 174.8477 13.67907234670820

Śledź SL-16 DEB w czasie rzeczywistym z AllMySat

Download on the App Store